Regional Weather Roundup
Issued by NWS

Home | Current Version | Previous Version | Text Only | Print | Product List | Glossary Off
Versions: 1 2 3 4 5 6 7 8 9 10 11 12 13 14 15 16 17 18 19 20 21 22 23 24 25 26 27 28 29 30 31 32 33 34 35 36 37 38 39 40 41 42 43 44 45 46 47 48 49 50

000
ASUS43 KIND 290409
RWRIN

WEATHER ROUNDUP FOR INDIANA
NATIONAL WEATHER SERVICE INDIANAPOLIS IN
1200 AM EDT SUN MAR 29 2015

NOTE: "FAIR" INDICATES FEW OR NO CLOUDS BELOW 12,000 FEET WITH NO
SIGNIFICANT WEATHER AND/OR OBSTRUCTIONS TO VISIBILITY.

* - STATION DOES NOT REPORT WEATHER SUCH AS PRECIPITATION OR FOG.

+ - STATION NOT QUALITY CONTROLLED BY THE NATIONAL WEATHER SERVICE.
    USE DATA WITH CAUTION...ESPECIALLY DEWPOINT AND RELATIVE
    HUMIDITY OBSERVATIONS.

INZ001>003-010>013-019-020-290500-
NORTHWEST INDIANA

CITY           SKY/WX    TMP DP  RH WIND       PRES   REMARKS
GARY /AIRPORT/ CLEAR     26  10  50 SE3       30.31F
KNOX *+          N/A     23   9  54 CALM      30.32S
LA PORTE +     CLEAR     21  17  83 CALM      30.32S
MICHIGAN CITY+ CLEAR     21  12  68 CALM      30.32S
MONTICELLO +   CLEAR     28  16  59 CALM      30.32S
RENSSELAER +   CLEAR     28  19  69 SE3       30.32F
VALPARAISO     CLEAR     23  12  62 CALM      30.32S

$$

LMZ046-743>745-290500-
SOUTHERN LAKE MICHIGAN

STATION/POSITION TIME  TEMP WIND        PRES
                       AIR  DIR/SP/G
                 (UTC) (F)  (DEG/KT/KT) (MB)
BURNS HARBOR     0400   27  130/  2/  4 1027.1R
MICHIGAN CITY    0400   24  120/  7/  8   N/A

$$

INZ004-005-014>016-021>024-290500-
NORTH CENTRAL INDIANA

CITY           SKY/WX    TMP DP  RH WIND       PRES   REMARKS
GOSHEN         CLEAR     24  15  68 CALM      30.31S
LOGANSPORT +   CLEAR     27  21  80 S6        30.33S WCI  20
PERU/GRISSOM   CLEAR     26  17  68 S5        30.31S WCI  20
ROCHESTER +    CLEAR     32  19  59 S5        30.32S WCI  27
SOUTH BEND     CLEAR     21  13  71 CALM      30.32S
WARSAW +       CLEAR     23  16  74 CALM      30.31F

$$

INZ006>009-017-018-025>027-290500-
NORTHEAST INDIANA

CITY           SKY/WX    TMP DP  RH WIND       PRES   REMARKS
ANGOLA *+      CLEAR     23  12  63 CALM      30.30R
AUBURN +       CLEAR     27  16  63 CALM      30.32S
FORT WAYNE     CLEAR     25  18  74 SW7       30.33R WCI  17
HUNTINGTON +   CLEAR     28  10  48 SW3       30.32S

$$

INZ028-029-035-036-043>045-051>053-290500-
WEST CENTRAL INDIANA

CITY           SKY/WX    TMP DP  RH WIND       PRES   REMARKS
CRAWFORDSVL +  CLEAR     23  16  72 MISG      30.33S
GREENCASTLE +  CLEAR     28  12  50 CALM      30.34R
LAFAYETTE      CLEAR     25  14  63 CALM      30.34R
TERRE HAUTE    CLEAR     29  18  63 E3        30.34S

$$

INZ030>032-037>040-046>048-054>057-064-065-290500-
CENTRAL INDIANA

CITY           SKY/WX    TMP DP  RH WIND       PRES   REMARKS
CP ATTERBURY + CLEAR     25  21  86 CALM      30.36R
FISHERS *+     CLEAR     25  18  74 E3        30.34S
FRANKFORT +    CLEAR     25  21  83 E6        30.34S WCI  18
GREENWOOD *+   CLEAR     28  12  50 CALM      30.35R
INDIANAPOLIS   CLEAR     30  12  47 E5        30.33R WCI  25
-EAGLE CREEK   CLEAR     29  14  53 E3        30.33R
KOKOMO *+        N/A     25  19  80 S5        30.33S WCI  19
MARION +       CLEAR     25  19  77 S3        30.33F
SHELBYVILLE    CLEAR     28  19  69 E5        30.34R WCI  23
ZIONSVILLE +   CLEAR     27  17  66 CALM      30.34R

$$

INZ033-034-041-042-049-050-058-059-290500-
EAST CENTRAL INDIANA

CITY           SKY/WX    TMP DP  RH WIND       PRES   REMARKS
MUNCIE         CLEAR     27  14  58 S3        30.33S

$$

INZ060-061-067>069-081>083-085>088-290500-
SOUTHWEST INDIANA

CITY           SKY/WX    TMP DP  RH WIND       PRES   REMARKS
EVANSVILLE     CLEAR     31  22  69 CALM      30.36R
HUNTINGBURG *+ CLEAR     30  18  59 CALM      30.35S
WASHINGTON +   CLEAR     30  22  70 CALM      30.34S

$$

INZ062-063-066-070>080-084-089>092-290500-
SOUTH CENTRAL AND SOUTHEAST INDIANA

CITY           SKY/WX    TMP DP  RH WIND       PRES   REMARKS
BEDFORD +      CLEAR     28  16  59 CALM      30.35R
BLOOMINGTON    CLEAR     25  16  68 E3        30.33R
NORTH VERNON + FAIR      27  18  69 CALM      30.35R
SEYMOUR +      CLEAR     27  19  74 CALM      30.36R

$$



USA.gov is the U.S. government's official web portal to all federal, state and local government web resources and services.